TimeHST,TemperatureF,Dew PointF,Humidity,Sea Level PressureIn,VisibilityMPH,Wind Direction,Wind SpeedMPH,Gust SpeedMPH,PrecipitationIn,Events,Conditions,WindDirDegrees,DateUTC
12:53 AM,77.0,64.9,66,29.98,10.0,SSE,11.5,-,N/A,,Clear,150,2013-08-03 10:53:00
1:53 AM,77.0,66.0,69,29.97,10.0,ESE,6.9,-,N/A,,Mostly Cloudy,120,2013-08-03 11:53:00
2:53 AM,78.1,66.0,66,29.96,10.0,East,3.5,-,N/A,,Overcast,100,2013-08-03 12:53:00
3:53 AM,78.1,64.0,62,29.96,10.0,North,6.9,-,N/A,,Overcast,10,2013-08-03 13:53:00
4:53 AM,78.1,62.1,58,29.97,10.0,Calm,Calm,-,N/A,,Overcast,0,2013-08-03 14:53:00
5:53 AM,77.0,66.0,69,29.97,10.0,Calm,Calm,-,N/A,,Overcast,0,2013-08-03 15:53:00
6:53 AM,78.1,66.9,68,29.99,10.0,Calm,Calm,-,N/A,,Clear,0,2013-08-03 16:53:00
7:53 AM,81.0,66.9,62,30.00,10.0,Calm,Calm,-,N/A,,Clear,0,2013-08-03 17:53:00
8:53 AM,82.0,64.9,56,30.00,10.0,WSW,5.8,-,N/A,,Clear,250,2013-08-03 18:53:00
9:53 AM,82.9,66.0,56,30.01,10.0,WSW,5.8,-,N/A,,Clear,250,2013-08-03 19:53:00
10:53 AM,84.0,66.9,56,30.00,10.0,WSW,8.1,-,N/A,,Clear,240,2013-08-03 20:53:00
11:53 AM,84.9,66.9,55,29.99,10.0,WSW,10.4,-,N/A,,Clear,240,2013-08-03 21:53:00
12:53 PM,82.9,69.1,63,29.98,10.0,SSW,10.4,-,N/A,,Mostly Cloudy,210,2013-08-03 22:53:00
12:57 PM,84.2,69.8,62,29.97,10.0,SW,10.4,-,N/A,,Mostly Cloudy,220,2013-08-03 22:57:00
1:53 PM,87.1,68.0,53,29.96,10.0,South,11.5,-,N/A,,Scattered Clouds,190,2013-08-03 23:53:00
2:53 PM,84.0,68.0,58,29.95,10.0,SSW,10.4,-,N/A,,Mostly Cloudy,200,2013-08-04 00:53:00
3:53 PM,82.0,66.9,60,29.95,10.0,SSW,8.1,-,N/A,,Overcast,200,2013-08-04 01:53:00
4:53 PM,82.0,66.0,58,29.94,10.0,South,9.2,-,N/A,,Overcast,180,2013-08-04 02:53:00
5:53 PM,82.0,64.9,56,29.95,10.0,South,8.1,-,N/A,,Mostly Cloudy,190,2013-08-04 03:53:00
6:53 PM,81.0,66.9,62,29.96,10.0,SSW,5.8,-,N/A,,Overcast,210,2013-08-04 04:53:00
7:53 PM,80.1,66.9,64,29.99,10.0,SSW,8.1,-,N/A,,Overcast,210,2013-08-04 05:53:00
8:53 PM,81.0,66.9,62,30.00,10.0,SSW,3.5,-,N/A,,Overcast,200,2013-08-04 06:53:00
9:53 PM,80.1,68.0,67,30.01,10.0,West,4.6,-,N/A,,Mostly Cloudy,260,2013-08-04 07:53:00
10:53 PM,79.0,66.9,66,30.01,10.0,SSW,3.5,-,N/A,,Partly Cloudy,200,2013-08-04 08:53:00
11:53 PM,79.0,68.0,69,30.00,10.0,Calm,Calm,-,N/A,,Scattered Clouds,0,2013-08-04 09:53:00